| time (UTC) | temp F | wind direction | speed MPH | gust MPH | rain 1hr in | rain 24hr in | rain mn in | humidity % | barometer mb |
| 20260508033503 | 49 | 272 | 3.0 | 7.0 | 0.00 | 0.58 | 0.00 | 99 | 1001.5 |
| 20260508033003 | 49 | 273 | 4.0 | 9.0 | 0.00 | 0.58 | 0.00 | 99 | 1001.5 |
| 20260508032524 | 49 | 269 | 5.0 | 9.0 | 0.00 | 0.58 | 0.00 | 99 | 1001.5 |
| 20260508032003 | 49 | 262 | 5.0 | 9.0 | 0.00 | 0.58 | 0.00 | 99 | 1001.7 |
| 20260508031503 | 49 | 260 | 4.0 | 7.0 | 0.00 | 0.58 | 0.00 | 99 | 1001.7 |
| 20260508031003 | 49 | 262 | 4.0 | 7.0 | 0.00 | 0.58 | 0.00 | 99 | 1001.6 |
| 20260508030524 | 49 | 256 | 4.0 | 7.0 | 0.00 | 0.58 | 0.00 | 99 | 1001.7 |
| 20260508030004 | 49 | 247 | 4.0 | 7.0 | 0.00 | 0.58 | 0.00 | 99 | 1001.7 |
| 20260508025503 | 49 | 244 | 3.0 | 7.0 | 0.00 | 0.58 | 0.58 | 99 | 1001.4 |
| 20260508025024 | 49 | 243 | 3.0 | 7.0 | 0.00 | 0.58 | 0.58 | 99 | 1001.5 |
| 20260508024503 | 49 | 243 | 3.0 | 6.0 | 0.00 | 0.58 | 0.58 | 99 | 1001.4 |
| 20260508024003 | 49 | 238 | 3.0 | 7.0 | 0.00 | 0.58 | 0.58 | 99 | 1001.2 |
| 20260508023503 | 49 | 234 | 4.0 | 7.0 | 0.00 | 0.58 | 0.58 | 99 | 1001.1 |
| 20260508023003 | 48 | 230 | 3.0 | 7.0 | 0.00 | 0.58 | 0.58 | 99 | 1001.2 |
| 20260508022503 | 48 | 230 | 4.0 | 6.0 | 0.00 | 0.58 | 0.58 | 99 | 1001.4 |
| 20260508022025 | 48 | 236 | 4.0 | 7.0 | 0.00 | 0.58 | 0.58 | 99 | 1001.2 |
| 20260508021504 | 48 | 237 | 4.0 | 10.0 | 0.00 | 0.58 | 0.58 | 99 | 1001.1 |
| 20260508021003 | 48 | 237 | 5.0 | 10.0 | 0.00 | 0.58 | 0.58 | 99 | 1001.3 |
| 20260508020524 | 48 | 232 | 6.0 | 10.0 | 0.00 | 0.58 | 0.58 | 99 | 1001.5 |
| 20260508020003 | 48 | 228 | 6.0 | 12.0 | 0.00 | 0.58 | 0.58 | 99 | 1001.5 |
| 20260508015503 | 48 | 228 | 6.0 | 12.0 | 0.00 | 0.58 | 0.58 | 99 | 1001.4 |
| 20260508015003 | 48 | 229 | 5.0 | 10.0 | 0.00 | 0.58 | 0.58 | 98 | 1001.4 |
| 20260508014503 | 48 | 223 | 5.0 | 9.0 | 0.00 | 0.58 | 0.58 | 98 | 1001.2 |
| 20260508014003 | 48 | 220 | 6.0 | 9.0 | 0.00 | 0.58 | 0.58 | 98 | 1001.1 |
| 20260508013504 | 48 | 215 | 6.0 | 9.0 | 0.00 | 0.58 | 0.58 | 98 | 1000.9 |
| 20260508013024 | 48 | 203 | 6.0 | 9.0 | 0.00 | 0.58 | 0.58 | 98 | 1001.0 |
| 20260508012503 | 48 | 198 | 6.0 | 10.0 | 0.00 | 0.58 | 0.58 | 98 | 1000.9 |
| 20260508012003 | 48 | 202 | 6.0 | 10.0 | 0.00 | 0.58 | 0.58 | 98 | 1001.1 |
| 20260508011504 | 48 | 203 | 5.0 | 9.0 | 0.00 | 0.58 | 0.58 | 98 | 1001.3 |
| 20260508011006 | 48 | 197 | 5.0 | 10.0 | 0.00 | 0.58 | 0.58 | 98 | 1001.3 |
| 20260508010503 | 48 | 197 | 6.0 | 10.0 | 0.00 | 0.58 | 0.58 | 98 | 1001.6 |
| 20260508010003 | 48 | 192 | 6.0 | 10.0 | 0.00 | 0.58 | 0.58 | 98 | 1001.8 |
| 20260508005504 | 48 | 190 | 6.0 | 11.0 | 0.00 | 0.58 | 0.58 | 98 | 1001.7 |
| 20260508005004 | 48 | 200 | 6.0 | 11.0 | 0.00 | 0.58 | 0.58 | 98 | 1001.7 |
| 20260508004506 | 48 | 203 | 6.0 | 10.0 | 0.00 | 0.58 | 0.58 | 98 | 1001.5 |
| 20260508004003 | 48 | 202 | 6.0 | 12.0 | 0.00 | 0.58 | 0.58 | 98 | 1001.5 |
| 20260508003503 | 48 | 206 | 6.0 | 12.0 | 0.00 | 0.58 | 0.58 | 98 | 1001.4 |
| 20260508003025 | 48 | 202 | 6.0 | 16.0 | 0.00 | 0.58 | 0.58 | 98 | 1001.6 |
| 20260508002503 | 48 | 194 | 8.0 | 16.0 | 0.00 | 0.58 | 0.58 | 98 | 1001.5 |
| 20260508002003 | 48 | 193 | 9.0 | 17.0 | 0.00 | 0.58 | 0.58 | 98 | 1001.6 |
| 20260508001503 | 48 | 192 | 9.0 | 17.0 | 0.00 | 0.58 | 0.58 | 98 | 1001.6 |
| 20260508001024 | 48 | 191 | 9.0 | 15.0 | 0.00 | 0.58 | 0.58 | 98 | 1001.7 |
| 20260508000503 | 48 | 191 | 9.0 | 15.0 | 0.00 | 0.58 | 0.58 | 98 | 1001.9 |
| 20260508000004 | 48 | 188 | 8.0 | 15.0 | 0.00 | 0.58 | 0.58 | 98 | 1002.1 |
| 20260507235503 | 48 | 191 | 7.0 | 14.0 | 0.00 | 0.58 | 0.58 | 98 | 1002.0 |
| 20260507235024 | 48 | 195 | 7.0 | 16.0 | 0.00 | 0.58 | 0.58 | 97 | 1001.8 |
| 20260507234503 | 48 | 194 | 9.0 | 16.0 | 0.00 | 0.58 | 0.58 | 97 | 1001.8 |
| 20260507234003 | 48 | 196 | 9.0 | 15.0 | 0.00 | 0.58 | 0.58 | 98 | 1002.1 |
| 20260507233003 | 49 | 204 | 9.0 | 15.0 | 0.00 | 0.58 | 0.58 | 97 | 1002.3 |
| 20260507232503 | 49 | 201 | 9.0 | 15.0 | 0.00 | 0.58 | 0.58 | 97 | 1002.3 |
| 20260507232004 | 49 | 191 | 10.0 | 16.0 | 0.00 | 0.58 | 0.58 | 97 | 1002.3 |
| 20260507231504 | 49 | 187 | 10.0 | 18.0 | 0.00 | 0.58 | 0.58 | 97 | 1002.1 |
| 20260507231003 | 49 | 193 | 10.0 | 18.0 | 0.01 | 0.58 | 0.58 | 97 | 1002.6 |
| 20260507230503 | 49 | 195 | 9.0 | 18.0 | 0.01 | 0.58 | 0.58 | 97 | 1002.4 |
| 20260507230003 | 49 | 197 | 7.0 | 16.0 | 0.01 | 0.58 | 0.58 | 97 | 1002.1 |
| 20260507225503 | 49 | 199 | 8.0 | 16.0 | 0.01 | 0.58 | 0.58 | 97 | 1002.0 |
| 20260507225003 | 49 | 201 | 9.0 | 16.0 | 0.01 | 0.58 | 0.58 | 97 | 1002.7 |
| 20260507224504 | 49 | 201 | 8.0 | 16.0 | 0.01 | 0.58 | 0.58 | 97 | 1002.5 |
| 20260507224003 | 49 | 197 | 9.0 | 15.0 | 0.01 | 0.58 | 0.58 | 97 | 1002.5 |
| 20260507223503 | 49 | 198 | 9.0 | 17.0 | 0.01 | 0.58 | 0.58 | 97 | 1002.1 |
| 20260507223003 | 49 | 196 | 9.0 | 17.0 | 0.01 | 0.58 | 0.58 | 97 | 1002.2 |
| 20260507222503 | 49 | 195 | 11.0 | 21.0 | 0.01 | 0.58 | 0.58 | 97 | 1002.4 |
| 20260507222003 | 49 | 191 | 12.0 | 21.0 | 0.01 | 0.58 | 0.58 | 97 | 1002.4 |
| 20260507221503 | 49 | 190 | 11.0 | 20.0 | 0.01 | 0.58 | 0.58 | 97 | 1002.3 |
| 20260507221003 | 49 | 195 | 12.0 | 22.0 | 0.01 | 0.57 | 0.57 | 97 | 1002.4 |
| 20260507220024 | 49 | 186 | 13.0 | 22.0 | 0.03 | 0.57 | 0.57 | 97 | 1001.9 |
| 20260507215503 | 49 | 185 | 14.0 | 22.0 | 0.05 | 0.57 | 0.57 | 97 | 1001.9 |
| 20260507215003 | 49 | 181 | 14.0 | 24.0 | 0.07 | 0.57 | 0.57 | 97 | 1001.6 |
| 20260507214503 | 49 | 178 | 14.0 | 24.0 | 0.09 | 0.57 | 0.57 | 97 | 1001.6 |
| 20260507214003 | 49 | 171 | 15.0 | 21.0 | 0.10 | 0.57 | 0.57 | 97 | 1001.6 |
| 20260507213503 | 49 | 169 | 15.0 | 24.0 | 0.12 | 0.57 | 0.57 | 97 | 1001.6 |
| 20260507213003 | 49 | 169 | 14.0 | 24.0 | 0.14 | 0.57 | 0.57 | 97 | 1001.6 |
| 20260507212503 | 49 | 168 | 14.0 | 25.0 | 0.16 | 0.57 | 0.57 | 96 | 1002.1 |
| 20260507211503 | 49 | 177 | 11.0 | 20.0 | 0.21 | 0.57 | 0.57 | 96 | 1002.5 |
| 20260507211003 | 49 | 179 | 10.0 | 19.0 | 0.24 | 0.57 | 0.57 | 96 | 1002.9 |
| 20260507210504 | 49 | 178 | 11.0 | 20.0 | 0.27 | 0.56 | 0.56 | 96 | 1003.2 |
| 20260507210024 | 49 | 179 | 11.0 | 20.0 | 0.28 | 0.54 | 0.54 | 96 | 1003.2 |
| 20260507205503 | 50 | 182 | 11.0 | 22.0 | 0.29 | 0.53 | 0.53 | 96 | 1003.8 |
| 20260507205025 | 50 | 181 | 11.0 | 22.0 | 0.29 | 0.50 | 0.50 | 96 | 1003.8 |
| 20260507204503 | 50 | 188 | 13.0 | 25.0 | 0.29 | 0.49 | 0.49 | 96 | 1003.9 |
| 20260507204003 | 50 | 192 | 14.0 | 25.0 | 0.28 | 0.47 | 0.47 | 96 | 1003.9 |
| 20260507203503 | 51 | 195 | 13.0 | 23.0 | 0.31 | 0.46 | 0.46 | 96 | 1004.2 |
| 20260507203003 | 51 | 207 | 12.0 | 22.0 | 0.30 | 0.43 | 0.43 | 97 | 1004.5 |
| 20260507202503 | 51 | 202 | 11.0 | 19.0 | 0.28 | 0.42 | 0.42 | 97 | 1004.5 |
| 20260507202003 | 51 | 187 | 11.0 | 21.0 | 0.28 | 0.39 | 0.39 | 97 | 1003.9 |
| 20260507201503 | 51 | 186 | 12.0 | 21.0 | 0.25 | 0.36 | 0.36 | 97 | 1003.9 |
| 20260507201003 | 51 | 176 | 14.0 | 23.0 | 0.24 | 0.33 | 0.33 | 97 | 1004.0 |
| 20260507200506 | 51 | 177 | 14.0 | 23.0 | 0.21 | 0.29 | 0.29 | 96 | 1004.0 |
| 20260507200024 | 51 | 178 | 15.0 | 30.0 | 0.20 | 0.26 | 0.27 | 96 | 1004.1 |
| 20260507195525 | 51 | 177 | 16.0 | 30.0 | 0.19 | 0.24 | 0.24 | 96 | 1004.1 |
| 20260507184002 | 51 | 178 | 14.0 | 30.0 | 0.02 | 0.02 | 0.02 | 95 | 1004.9 |
| 20260507183502 | 51 | 180 | 16.0 | 32.0 | 0.02 | 0.02 | 0.02 | 95 | 1004.9 |
| 20260507183002 | 52 | 180 | 19.0 | 32.0 | 0.02 | 0.02 | 0.02 | 94 | 1004.8 |
| 20260507182502 | 52 | 182 | 19.0 | 28.0 | 0.01 | 0.01 | 0.01 | 93 | 1004.8 |
| 20260507182002 | 52 | 183 | 18.0 | 36.0 | 0.01 | 0.01 | 0.01 | 93 | 1004.8 |
| 20260507181502 | 52 | 180 | 17.0 | 36.0 | 0.00 | 0.00 | 0.00 | 92 | 1004.7 |
| 20260507181002 | 52 | 178 | 18.0 | 32.0 | 0.00 | 0.00 | 0.00 | 91 | 1004.9 |
| 20260507180523 | 53 | 179 | 19.0 | 38.0 | 0.00 | 0.00 | 0.00 | 91 | 1005.0 |
| 20260507180023 | 53 | 178 | 19.0 | 38.0 | 0.00 | 0.00 | 0.00 | 91 | 1005.0 |
| 20260507175502 | 53 | 178 | 19.0 | 33.0 | 0.00 | 0.00 | 0.00 | 91 | 1005.1 |
| 20260507175002 | 54 | 176 | 19.0 | 36.0 | 0.00 | 0.00 | 0.00 | 90 | 1005.2 |
| 20260507174523 | 54 | 174 | 18.0 | 36.0 | 0.00 | 0.00 | 0.00 | 90 | 1005.3 |
| 20260507174002 | 54 | 171 | 17.0 | 34.0 | 0.00 | 0.00 | 0.00 | 89 | 1005.6 |
| 20260507173502 | 55 | 168 | 15.0 | 29.0 | 0.00 | 0.00 | 0.00 | 88 | 1005.7 |
| 20260507173002 | 56 | 165 | 16.0 | 26.0 | 0.00 | 0.00 | 0.00 | 87 | 1005.5 |
| 20260507172502 | 56 | 169 | 16.0 | 32.0 | 0.00 | 0.00 | 0.00 | 87 | 1005.6 |
| 20260507172023 | 56 | 168 | 15.0 | 32.0 | 0.00 | 0.00 | 0.00 | 87 | 1005.5 |
| 20260507171502 | 56 | 170 | 16.0 | 34.0 | 0.00 | 0.00 | 0.00 | 87 | 1005.5 |
| 20260507171002 | 56 | 174 | 16.0 | 34.0 | 0.00 | 0.00 | 0.00 | 88 | 1005.8 |
| 20260507170523 | 56 | 176 | 16.0 | 31.0 | 0.00 | 0.00 | 0.00 | 88 | 1006.0 |
| 20260507170023 | 56 | 177 | 16.0 | 29.0 | 0.00 | 0.00 | 0.00 | 88 | 1006.2 |
| 20260507165523 | 56 | 175 | 17.0 | 31.0 | 0.00 | 0.00 | 0.00 | 88 | 1006.2 |
| 20260507165002 | 56 | 176 | 18.0 | 31.0 | 0.00 | 0.00 | 0.00 | 88 | 1006.3 |
| 20260507164502 | 56 | 179 | 17.0 | 31.0 | 0.00 | 0.00 | 0.00 | 88 | 1006.4 |
| 20260507164002 | 55 | 182 | 17.0 | 29.0 | 0.00 | 0.00 | 0.00 | 89 | 1006.6 |
| 20260507163502 | 55 | 181 | 18.0 | 39.0 | 0.00 | 0.00 | 0.00 | 90 | 1006.8 |
| 20260507163002 | 55 | 176 | 16.0 | 39.0 | 0.00 | 0.00 | 0.00 | 90 | 1007.0 |
| 20260507162502 | 55 | 180 | 13.0 | 26.0 | 0.00 | 0.00 | 0.00 | 90 | 1007.2 |
| 20260507162002 | 55 | 190 | 13.0 | 23.0 | 0.00 | 0.00 | 0.00 | 91 | 1007.3 |
| 20260507161523 | 54 | 189 | 13.0 | 27.0 | 0.00 | 0.00 | 0.00 | 92 | 1007.6 |
| 20260507161002 | 54 | 188 | 14.0 | 29.0 | 0.00 | 0.00 | 0.00 | 92 | 1007.8 |
| 20260507160502 | 54 | 189 | 15.0 | 29.0 | 0.00 | 0.00 | 0.00 | 91 | 1008.0 |
| 20260507160003 | 54 | 191 | 15.0 | 28.0 | 0.00 | 0.00 | 0.00 | 91 | 1007.9 |
| 20260507155502 | 54 | 191 | 16.0 | 27.0 | 0.00 | 0.00 | 0.00 | 91 | 1008.0 |
| 20260507155002 | 54 | 188 | 16.0 | 31.0 | 0.00 | 0.00 | 0.00 | 91 | 1008.0 |
| 20260507154523 | 55 | 186 | 14.0 | 31.0 | 0.00 | 0.00 | 0.00 | 91 | 1008.1 |
| 20260507154002 | 55 | 190 | 13.0 | 28.0 | 0.00 | 0.00 | 0.00 | 90 | 1008.2 |
| 20260507153502 | 55 | 191 | 15.0 | 30.0 | 0.00 | 0.00 | 0.00 | 91 | 1008.6 |
| 20260507153002 | 55 | 188 | 15.0 | 30.0 | 0.00 | 0.00 | 0.00 | 91 | 1008.6 |
| 20260507152523 | 55 | 185 | 13.0 | 26.0 | 0.00 | 0.00 | 0.00 | 91 | 1008.7 |
| 20260507152002 | 55 | 190 | 13.0 | 24.0 | 0.00 | 0.00 | 0.00 | 91 | 1008.9 |
| 20260507151502 | 55 | 194 | 15.0 | 29.0 | 0.00 | 0.00 | 0.00 | 92 | 1009.0 |
| 20260507151002 | 55 | 195 | 16.0 | 29.0 | 0.00 | 0.00 | 0.00 | 91 | 1008.9 |
| 20260507150502 | 55 | 196 | 16.0 | 26.0 | 0.00 | 0.00 | 0.00 | 91 | 1009.1 |
| 20260507150023 | 55 | 192 | 15.0 | 26.0 | 0.00 | 0.00 | 0.00 | 92 | 1009.1 |
| 20260507145502 | 55 | 187 | 14.0 | 27.0 | 0.00 | 0.00 | 0.00 | 91 | 1009.2 |
| 20260507145002 | 55 | 186 | 14.0 | 30.0 | 0.00 | 0.00 | 0.00 | 91 | 1009.1 |
| 20260507144502 | 55 | 189 | 15.0 | 32.0 | 0.00 | 0.00 | 0.00 | 91 | 1009.5 |
| 20260507144002 | 55 | 185 | 15.0 | 32.0 | 0.00 | 0.00 | 0.00 | 91 | 1009.6 |
| 20260507143502 | 55 | 186 | 15.0 | 27.0 | 0.00 | 0.00 | 0.00 | 91 | 1009.7 |
| 20260507143023 | 55 | 191 | 16.0 | 34.0 | 0.00 | 0.00 | 0.00 | 90 | 1009.9 |
| 20260507142523 | 55 | 192 | 17.0 | 34.0 | 0.00 | 0.00 | 0.00 | 90 | 1010.1 |
| 20260507142002 | 55 | 191 | 14.0 | 33.0 | 0.00 | 0.00 | 0.00 | 90 | 1010.2 |
| 20260507141502 | 55 | 188 | 15.0 | 30.0 | 0.00 | 0.00 | 0.00 | 90 | 1010.3 |
| 20260507141023 | 56 | 186 | 15.0 | 29.0 | 0.00 | 0.00 | 0.00 | 90 | 1010.2 |
| 20260507140502 | 56 | 185 | 16.0 | 33.0 | 0.00 | 0.00 | 0.00 | 89 | 1010.3 |
| 20260507140002 | 56 | 183 | 16.0 | 33.0 | 0.00 | 0.00 | 0.00 | 89 | 1010.1 |
| 20260507135502 | 56 | 185 | 16.0 | 33.0 | 0.00 | 0.00 | 0.00 | 89 | 1010.1 |
| 20260507135002 | 55 | 183 | 18.0 | 33.0 | 0.00 | 0.00 | 0.00 | 89 | 1010.2 |
| 20260507134502 | 55 | 179 | 18.0 | 33.0 | 0.00 | 0.00 | 0.00 | 89 | 1010.3 |
| 20260507134023 | 55 | 175 | 16.0 | 37.0 | 0.00 | 0.00 | 0.00 | 89 | 1010.1 |
| 20260507133502 | 55 | 173 | 15.0 | 37.0 | 0.00 | 0.00 | 0.00 | 90 | 1010.1 |
| 20260507133002 | 55 | 172 | 14.0 | 30.0 | 0.00 | 0.00 | 0.00 | 91 | 1009.8 |
| 20260507132502 | 54 | 176 | 16.0 | 28.0 | 0.00 | 0.00 | 0.00 | 91 | 1010.0 |
| 20260507132002 | 54 | 177 | 19.0 | 30.0 | 0.00 | 0.00 | 0.00 | 92 | 1010.0 |
| 20260507131502 | 54 | 175 | 18.0 | 38.0 | 0.00 | 0.00 | 0.00 | 92 | 1010.2 |
| 20260507131002 | 54 | 173 | 15.0 | 38.0 | 0.00 | 0.00 | 0.00 | 92 | 1010.2 |
| 20260507130502 | 54 | 170 | 13.0 | 27.0 | 0.00 | 0.00 | 0.00 | 92 | 1010.1 |
| 20260507130002 | 53 | 171 | 12.0 | 21.0 | 0.00 | 0.00 | 0.00 | 93 | 1009.9 |
| 20260507125502 | 53 | 175 | 13.0 | 27.0 | 0.00 | 0.00 | 0.00 | 94 | 1009.9 |
| 20260507125023 | 53 | 177 | 14.0 | 27.0 | 0.00 | 0.00 | 0.00 | 94 | 1010.1 |
| 20260507124502 | 52 | 180 | 15.0 | 25.0 | 0.00 | 0.00 | 0.00 | 94 | 1010.4 |
| 20260507124002 | 52 | 180 | 16.0 | 27.0 | 0.00 | 0.00 | 0.00 | 94 | 1010.5 |
| 20260507123524 | 52 | 179 | 16.0 | 28.0 | 0.00 | 0.00 | 0.00 | 94 | 1010.4 |
| 20260507123002 | 52 | 179 | 16.0 | 29.0 | 0.00 | 0.00 | 0.00 | 94 | 1010.9 |
| 20260507122502 | 52 | 177 | 16.0 | 32.0 | 0.00 | 0.00 | 0.00 | 93 | 1011.1 |
| 20260507122023 | 52 | 175 | 17.0 | 32.0 | 0.00 | 0.00 | 0.00 | 93 | 1011.1 |
| 20260507121502 | 52 | 175 | 16.0 | 30.0 | 0.00 | 0.00 | 0.00 | 93 | 1011.2 |
| 20260507121002 | 52 | 175 | 15.0 | 30.0 | 0.00 | 0.00 | 0.00 | 93 | 1011.4 |
| 20260507120502 | 52 | 179 | 17.0 | 30.0 | 0.00 | 0.00 | 0.00 | 93 | 1011.6 |
| 20260507120023 | 52 | 179 | 17.0 | 30.0 | 0.00 | 0.00 | 0.00 | 93 | 1011.8 |
| 20260507115502 | 52 | 176 | 16.0 | 30.0 | 0.00 | 0.00 | 0.00 | 93 | 1011.8 |
| 20260507115002 | 52 | 175 | 17.0 | 37.0 | 0.00 | 0.00 | 0.00 | 94 | 1011.8 |
| 20260507114502 | 52 | 178 | 17.0 | 37.0 | 0.00 | 0.00 | 0.00 | 94 | 1011.8 |
| 20260507114002 | 53 | 179 | 16.0 | 34.0 | 0.00 | 0.00 | 0.00 | 94 | 1012.0 |
| 20260507113502 | 53 | 179 | 17.0 | 31.0 | 0.00 | 0.00 | 0.00 | 95 | 1012.2 |
| 20260507113002 | 52 | 179 | 18.0 | 34.0 | 0.00 | 0.00 | 0.00 | 95 | 1012.2 |
| 20260507112502 | 52 | 178 | 17.0 | 34.0 | 0.00 | 0.00 | 0.00 | 95 | 1012.2 |
| 20260507112023 | 52 | 177 | 16.0 | 29.0 | 0.00 | 0.00 | 0.00 | 95 | 1011.7 |
| 20260507111503 | 52 | 177 | 15.0 | 29.0 | 0.00 | 0.00 | 0.00 | 95 | 1011.8 |
| 20260507111002 | 52 | 177 | 15.0 | 26.0 | 0.00 | 0.00 | 0.00 | 96 | 1011.9 |
| 20260507110502 | 52 | 175 | 15.0 | 26.0 | 0.00 | 0.00 | 0.00 | 96 | 1012.0 |
| 20260507110002 | 51 | 173 | 16.0 | 26.0 | 0.00 | 0.00 | 0.00 | 96 | 1012.0 |
| 20260507105523 | 51 | 179 | 15.0 | 27.0 | 0.00 | 0.00 | 0.00 | 96 | 1012.1 |
| 20260507105002 | 52 | 186 | 14.0 | 27.0 | 0.00 | 0.00 | 0.00 | 96 | 1012.7 |
| 20260507104502 | 51 | 185 | 15.0 | 25.0 | 0.00 | 0.00 | 0.00 | 96 | 1012.9 |
| 20260507104003 | 51 | 182 | 14.0 | 25.0 | 0.00 | 0.00 | 0.00 | 96 | 1012.9 |
| 20260507103502 | 51 | 182 | 13.0 | 25.0 | 0.00 | 0.00 | 0.00 | 96 | 1012.7 |
| 20260507103002 | 51 | 179 | 14.0 | 25.0 | 0.00 | 0.00 | 0.00 | 96 | 1012.8 |
| 20260507102502 | 51 | 177 | 13.0 | 27.0 | 0.00 | 0.00 | 0.00 | 96 | 1012.5 |
| 20260507102023 | 51 | 181 | 13.0 | 27.0 | 0.00 | 0.00 | 0.00 | 96 | 1012.7 |
| 20260507101502 | 51 | 183 | 11.0 | 22.0 | 0.00 | 0.00 | 0.00 | 96 | 1012.7 |
| 20260507101002 | 51 | 185 | 10.0 | 18.0 | 0.00 | 0.00 | 0.00 | 96 | 1013.0 |
| 20260507100502 | 51 | 183 | 10.0 | 18.0 | 0.00 | 0.00 | 0.00 | 96 | 1013.0 |
| 20260507100002 | 51 | 177 | 11.0 | 20.0 | 0.00 | 0.00 | 0.00 | 96 | 1012.7 |
| 20260507095502 | 51 | 181 | 11.0 | 20.0 | 0.00 | 0.00 | 0.00 | 96 | 1012.6 |
| 20260507095002 | 51 | 188 | 10.0 | 18.0 | 0.00 | 0.00 | 0.00 | 96 | 1013.1 |
| 20260507094502 | 51 | 189 | 11.0 | 18.0 | 0.00 | 0.00 | 0.00 | 96 | 1013.2 |
| 20260507094002 | 51 | 186 | 11.0 | 19.0 | 0.00 | 0.00 | 0.00 | 96 | 1013.0 |
| 20260507093502 | 51 | 182 | 11.0 | 19.0 | 0.00 | 0.00 | 0.00 | 96 | 1013.0 |
| 20260507093002 | 51 | 185 | 11.0 | 20.0 | 0.00 | 0.00 | 0.00 | 96 | 1012.9 |
| 20260507092502 | 51 | 188 | 12.0 | 23.0 | 0.00 | 0.00 | 0.00 | 96 | 1013.0 |
| 20260507092023 | 51 | 186 | 12.0 | 23.0 | 0.00 | 0.00 | 0.00 | 96 | 1013.4 |
| 20260507091502 | 51 | 185 | 10.0 | 21.0 | 0.00 | 0.00 | 0.00 | 96 | 1013.2 |
| 20260507091023 | 51 | 187 | 9.0 | 19.0 | 0.00 | 0.00 | 0.00 | 96 | 1013.1 |
| 20260507090502 | 51 | 188 | 10.0 | 18.0 | 0.00 | 0.00 | 0.00 | 96 | 1013.0 |
| 20260507090023 | 51 | 189 | 10.0 | 18.0 | 0.00 | 0.00 | 0.00 | 96 | 1013.2 |
| 20260507085502 | 51 | 190 | 10.0 | 18.0 | 0.00 | 0.00 | 0.00 | 96 | 1013.1 |
| 20260507085023 | 51 | 185 | 11.0 | 22.0 | 0.00 | 0.00 | 0.00 | 96 | 1013.1 |
| 20260507084523 | 51 | 181 | 11.0 | 22.0 | 0.00 | 0.00 | 0.00 | 96 | 1013.2 |
| 20260507084023 | 51 | 178 | 12.0 | 21.0 | 0.00 | 0.00 | 0.00 | 95 | 1013.0 |
| 20260507083502 | 51 | 178 | 13.0 | 21.0 | 0.00 | 0.00 | 0.00 | 95 | 1012.9 |
| 20260507083002 | 51 | 178 | 12.0 | 21.0 | 0.00 | 0.00 | 0.00 | 95 | 1013.1 |
| 20260507082523 | 51 | 177 | 12.0 | 22.0 | 0.00 | 0.00 | 0.00 | 95 | 1013.1 |
| 20260507082002 | 51 | 176 | 12.0 | 26.0 | 0.00 | 0.00 | 0.00 | 95 | 1013.0 |
| 20260507081502 | 51 | 178 | 11.0 | 26.0 | 0.00 | 0.00 | 0.00 | 95 | 1013.2 |
| 20260507081002 | 51 | 182 | 11.0 | 23.0 | 0.00 | 0.00 | 0.00 | 95 | 1013.5 |
| 20260507080502 | 51 | 183 | 10.0 | 22.0 | 0.00 | 0.00 | 0.00 | 94 | 1013.4 |
| 20260507080002 | 51 | 184 | 10.0 | 19.0 | 0.00 | 0.00 | 0.00 | 94 | 1013.6 |
| 20260507075502 | 51 | 183 | 11.0 | 21.0 | 0.00 | 0.00 | 0.00 | 94 | 1013.7 |
| 20260507075002 | 51 | 183 | 12.0 | 21.0 | 0.00 | 0.00 | 0.00 | 94 | 1013.7 |
| 20260507074502 | 51 | 183 | 11.0 | 23.0 | 0.00 | 0.00 | 0.00 | 94 | 1013.6 |
| 20260507074002 | 51 | 185 | 11.0 | 23.0 | 0.00 | 0.00 | 0.00 | 94 | 1013.6 |
| 20260507073502 | 51 | 188 | 12.0 | 24.0 | 0.00 | 0.00 | 0.00 | 94 | 1013.8 |
| 20260507073002 | 51 | 187 | 13.0 | 27.0 | 0.00 | 0.00 | 0.00 | 94 | 1013.7 |
| 20260507072503 | 51 | 183 | 11.0 | 27.0 | 0.00 | 0.00 | 0.00 | 95 | 1013.9 |
| 20260507072002 | 51 | 181 | 10.0 | 21.0 | 0.00 | 0.00 | 0.00 | 95 | 1013.8 |
| 20260507071502 | 51 | 188 | 9.0 | 21.0 | 0.00 | 0.00 | 0.00 | 95 | 1013.9 |
| 20260507071002 | 51 | 191 | 9.0 | 17.0 | 0.00 | 0.00 | 0.00 | 95 | 1014.0 |
| 20260507070523 | 51 | 190 | 9.0 | 17.0 | 0.00 | 0.00 | 0.00 | 95 | 1014.1 |
| 20260507070003 | 51 | 191 | 9.0 | 16.0 | 0.00 | 0.00 | 0.00 | 95 | 1014.2 |
| 20260507065502 | 51 | 187 | 9.0 | 18.0 | 0.00 | 0.00 | 0.00 | 95 | 1014.2 |
| 20260507065002 | 51 | 187 | 10.0 | 18.0 | 0.00 | 0.00 | 0.00 | 95 | 1014.2 |
| 20260507064502 | 51 | 186 | 10.0 | 17.0 | 0.00 | 0.00 | 0.00 | 95 | 1014.1 |
| 20260507064002 | 51 | 185 | 11.0 | 20.0 | 0.00 | 0.00 | 0.00 | 95 | 1014.2 |
| 20260507063502 | 52 | 187 | 10.0 | 20.0 | 0.00 | 0.00 | 0.00 | 95 | 1014.3 |
| 20260507063023 | 52 | 184 | 8.0 | 17.0 | 0.00 | 0.00 | 0.00 | 95 | 1014.3 |
| 20260507062502 | 52 | 178 | 7.0 | 14.0 | 0.00 | 0.00 | 0.00 | 95 | 1014.3 |
| 20260507062002 | 52 | 181 | 8.0 | 16.0 | 0.00 | 0.00 | 0.00 | 95 | 1014.4 |
| 20260507061502 | 52 | 183 | 9.0 | 16.0 | 0.00 | 0.00 | 0.00 | 95 | 1014.4 |
| 20260507061002 | 53 | 186 | 10.0 | 19.0 | 0.00 | 0.00 | 0.00 | 96 | 1014.4 |
| 20260507060523 | 53 | 187 | 11.0 | 20.0 | 0.00 | 0.00 | 0.00 | 96 | 1014.5 |
| 20260507060002 | 53 | 188 | 11.0 | 20.0 | 0.00 | 0.00 | 0.00 | 96 | 1014.5 |
| 20260507055502 | 52 | 188 | 10.0 | 17.0 | 0.00 | 0.00 | 0.00 | 96 | 1014.6 |
| 20260507055002 | 52 | 187 | 11.0 | 17.0 | 0.00 | 0.00 | 0.00 | 95 | 1014.6 |
| 20260507054523 | 52 | 187 | 11.0 | 16.0 | 0.00 | 0.00 | 0.00 | 95 | 1014.6 |
| 20260507054002 | 52 | 188 | 10.0 | 19.0 | 0.00 | 0.00 | 0.00 | 95 | 1014.8 |
| 20260507053502 | 53 | 191 | 9.0 | 17.0 | 0.00 | 0.00 | 0.00 | 96 | 1014.9 |
| 20260507053003 | 53 | 193 | 9.0 | 16.0 | 0.00 | 0.00 | 0.00 | 96 | 1015.0 |
| 20260507052523 | 53 | 191 | 8.0 | 15.0 | 0.00 | 0.00 | 0.00 | 96 | 1015.1 |
| 20260507052002 | 53 | 197 | 8.0 | 15.0 | 0.00 | 0.00 | 0.00 | 96 | 1015.2 |
| 20260507051502 | 53 | 199 | 8.0 | 15.0 | 0.00 | 0.00 | 0.00 | 96 | 1015.3 |
| 20260507051023 | 53 | 196 | 7.0 | 12.0 | 0.00 | 0.00 | 0.00 | 96 | 1015.3 |
| 20260507050502 | 53 | 200 | 7.0 | 12.0 | 0.00 | 0.00 | 0.00 | 96 | 1015.3 |
| 20260507050002 | 53 | 204 | 8.0 | 13.0 | 0.00 | 0.00 | 0.00 | 96 | 1015.4 |
| 20260507045502 | 53 | 204 | 10.0 | 17.0 | 0.00 | 0.00 | 0.00 | 96 | 1015.4 |
| 20260507045002 | 53 | 199 | 11.0 | 19.0 | 0.00 | 0.00 | 0.00 | 96 | 1015.6 |
| 20260507044502 | 53 | 196 | 10.0 | 19.0 | 0.00 | 0.00 | 0.00 | 96 | 1015.7 |
| 20260507044003 | 53 | 196 | 9.0 | 16.0 | 0.00 | 0.00 | 0.00 | 96 | 1015.7 |
| 20260507043502 | 53 | 196 | 9.0 | 14.0 | 0.00 | 0.00 | 0.00 | 96 | 1015.7 |
| 20260507043002 | 53 | 197 | 10.0 | 18.0 | 0.00 | 0.00 | 0.00 | 96 | 1015.9 |
| 20260507042502 | 53 | 197 | 10.0 | 18.0 | 0.00 | 0.00 | 0.00 | 96 | 1015.9 |
| 20260507042002 | 53 | 200 | 10.0 | 20.0 | 0.00 | 0.00 | 0.00 | 96 | 1016.0 |
| 20260507041523 | 53 | 203 | 9.0 | 20.0 | 0.00 | 0.00 | 0.00 | 96 | 1016.1 |
| 20260507041023 | 53 | 206 | 7.0 | 13.0 | 0.00 | 0.00 | 0.00 | 96 | 1016.3 |
| 20260507040502 | 53 | 209 | 9.0 | 22.0 | 0.00 | 0.00 | 0.00 | 96 | 1016.4 |
| 20260507040002 | 53 | 211 | 11.0 | 22.0 | 0.00 | 0.00 | 0.00 | 96 | 1016.5 |
| 20260507035523 | 53 | 212 | 11.0 | 20.0 | 0.00 | 0.00 | 0.00 | 96 | 1016.5 |
| 20260507035002 | 53 | 211 | 11.0 | 20.0 | 0.00 | 0.00 | 0.00 | 96 | 1016.6 |
| 20260507034502 | 53 | 208 | 10.0 | 20.0 | 0.00 | 0.00 | 0.00 | 96 | 1016.6 |
| 20260507034002 | 53 | 209 | 9.0 | 18.0 | 0.00 | 0.00 | 0.00 | 96 | 1016.6 |